Preview of NWS' New Version of Forecast
This preview is not operational and should not be used for support decisions.

Regional Weather Roundup (RWR)

Issued by National Weather Service (NWS)

                            
000
ASUS46 KSEW 221410
RWRWA 

WASHINGTON REGIONAL WEATHER ROUNDUP
NATIONAL WEATHER SERVICE SEATTLE WA
700 AM PDT MON APR 22 2019

NOTE:"FAIR" INDICATES FEW OR NO CLOUDS BELOW 12,000 FEET WITH NO 
SIGNIFICANT WEATHER AND/OR OBSTRUCTIONS TO VISIBILITY.

WAZ507-509-555>559-221500-
SEATTLE, TACOMA, EVERETT, AND VICINITY
  
CITY           SKY/WX    TMP DP  RH WIND       PRES   REMARKS
EVERETT        LGT RAIN  47  40  76 SE12      30.28S                  
BOEING FIELD   CLOUDY    48  41  76 SE9       30.30R                  
RENTON         CLOUDY    46  42  86 SE3       30.30S                  
SEATAC AIRPORT LGT RAIN  47  41  80 S6        30.29S                  
JBLM-MCCHORD   MOCLDY    43  43 100 CALM      30.30S                  
PUYALLUP       CLOUDY    43  43 100 CALM      30.30S                  
BREMERTON      CLOUDY    43  40  89 SW7       30.28R                  
JBLM-FT LEWIS  MOCLDY    42  42 100 SE3       30.29S                  
TACOMA NARROWS CLOUDY    45  41  86 SE6       30.29S                  
$$
 
WAZ001-503-506-510-514-515-221500-
NORTH INTERIOR
  
CITY           SKY/WX    TMP DP  RH WIND       PRES   REMARKS
BELLINGHAM     CLOUDY    49  43  80 S7        30.27S                  
FRIDAY HARBOR  LGT RAIN  48  44  86 E5        30.27S                  
EASTSOUND      LGT RAIN  48  46  93 SE7       30.25F                  
PORT ANGELES   CLOUDY    46  43  89 E6        30.24F                  
EDIZ HOOK      CLOUDY    47  44  87 SE6       30.25F                  
PORT TOWNSEND  CLOUDY    45  43  93 CALM      30.27R                  
NAS WHIDBEY    CLOUDY    50  42  74 SE3       30.32R                  
ARLINGTON      LGT RAIN  46  43  89 CALM      30.29S                  
BURLINGTON       N/A    N/A N/A N/A MISG        N/A                   
$$
 
WAZ020-022-039-040-504-511-512-221500-
SOUTHWEST INTERIOR
  
CITY           SKY/WX    TMP DP  RH WIND       PRES   REMARKS
SHELTON        CLOUDY    44  39  82 SW5       30.27R                  
OLYMPIA        CLOUDY    43  40  89 S5        30.29S                  
CHEHALIS       CLOUDY    43  43 100 VRB6      30.30S                  
KELSO          PTCLDY    42  40  92 CALM      30.34R                  
VANCOUVER      PTCLDY    42  39  89 CALM      30.33R                  
SCAPPOOSE, OR  MOCLDY    43  40  89 CALM      30.32R                  
PORTLAND, OR   MOCLDY    43  39  86 CALM      30.33R                  
$$
 
WAZ021-516-517-221500-
WASHINGTON COAST
  
CITY           SKY/WX    TMP DP  RH WIND       PRES   REMARKS
FORKS          LGT RAIN  45  42  89 VRB3      30.22F                  
HOQUIAM        CLOUDY    44  42  93 E9        30.27F                  
ASTORIA, OR    MOCLDY    43  40  89 CALM      30.29R                  
$$
 
WAZ019-023-024-040-567>569-221500-
CASCADE MOUNTAINS AND COLUMBIA GORGE
  
CITY           SKY/WX    TMP DP  RH WIND       PRES   REMARKS
STAMPEDE PASS  MOCLDY    36  33  89 VRB5      30.24R                  
TROUTDALE, OR  PTCLDY    41  38  89 E5        30.32R                  
HOOD RIVER, OR SUNNY     39  34  81 MISG      30.29R                  
THE DALLES, OR CLEAR     43  35  73 CALM      30.28R                  
$$

WAZ026-027-041>044-520-521-221500-
EAST SLOPES
  
CITY           SKY/WX    TMP DP  RH WIND       PRES   REMARKS
OMAK           PTCLDY    41  29  62 W5        30.19R                  
WENATCHEE      MOCLDY    47  34  60 W8        30.20R                  
ELLENSBURG     MOCLDY    40  33  76 CALM      30.22R                  
YAKIMA         MOCLDY    40  34  79 W6        30.23R                  
SUNNYSIDE ARPT MOSUNNY   42  40  93 CALM      30.24R                  
YAKIMA TC      FAIR      44  34  69 N6        30.21R                  
$$

WAZ028-034-035-221500-
COLUMBIA BASIN
  
CITY           SKY/WX    TMP DP  RH WIND       PRES   REMARKS
EPHRATA        PTCLDY    44  37  76 N7        30.20R                  
MOSES LAKE     PTCLDY    43  36  76 SE5       30.21R                  
PASCO          CLEAR     54  39  57 SW13      30.23R                  
RICHLAND ARPT  SUNNY     52  42  69 S8        30.23R                  
HERMISTON, OR  CLEAR     45  39  79 S6        30.24R                  
$$

WAZ036>038-221500-
NORTHEAST WASHINGTON
  
CITY           SKY/WX    TMP DP  RH WIND       PRES   REMARKS
SPOKANE GEIGER MOSUNNY   43  34  70 S7        30.21S                  
SPOKANE FELTS  SUNNY     43  35  73 NE3       30.23R                  
FAIRCHILD AFB  SUNNY     42  41  96 S8        30.21R                  
COEURDALENE,ID MOSUNNY   42  37  82 CALM      30.23S                  
DEER PARK      SUNNY     38  33  82 CALM      30.22R                  
$$

WAZ029>033-221500-
SOUTHEAST WASHINGTON
  
CITY           SKY/WX    TMP DP  RH WIND       PRES   REMARKS
PULLMAN        SUNNY     44  35  70 NE7       30.25R                  
LEWISTON, ID   SUNNY     46  39  76 SE3       30.25S                  
WALLA WALLA    SUNNY     48  38  68 E3        30.23R                  
PENDLETON, OR  CLEAR     44  37  76 SE6       30.23R                  
$$